TimeCDT,TemperatureF,Dew PointF,Humidity,Sea Level PressureIn,VisibilityMPH,Wind Direction,Wind SpeedMPH,Gust SpeedMPH,PrecipitationIn,Events,Conditions,WindDirDegrees,DateUTC
12:53 AM,73.9,61.0,64,29.89,10.0,SE,8.1,-,N/A,,Clear,130,2013-07-06 05:53:00
1:53 AM,73.0,61.0,66,29.89,10.0,SE,6.9,-,N/A,,Clear,130,2013-07-06 06:53:00
2:53 AM,71.1,60.1,68,29.89,10.0,ESE,4.6,-,N/A,,Clear,120,2013-07-06 07:53:00
3:53 AM,70.0,61.0,73,29.89,10.0,ESE,5.8,-,N/A,,Clear,110,2013-07-06 08:53:00
4:53 AM,70.0,60.1,71,29.90,10.0,Calm,Calm,-,N/A,,Partly Cloudy,0,2013-07-06 09:53:00
5:53 AM,69.1,61.0,75,29.91,10.0,East,4.6,-,N/A,,Clear,90,2013-07-06 10:53:00
6:53 AM,71.1,61.0,70,29.92,10.0,East,6.9,-,N/A,,Overcast,100,2013-07-06 11:53:00
7:53 AM,73.9,61.0,64,29.92,10.0,SSE,11.5,-,N/A,,Mostly Cloudy,150,2013-07-06 12:53:00
8:53 AM,78.1,62.1,58,29.92,10.0,SSE,10.4,-,N/A,,Mostly Cloudy,160,2013-07-06 13:53:00
9:53 AM,80.1,63.0,56,29.91,10.0,SSE,11.5,-,N/A,,Clear,150,2013-07-06 14:53:00
10:53 AM,82.9,64.0,53,29.90,10.0,SE,11.5,-,N/A,,Clear,140,2013-07-06 15:53:00
11:53 AM,84.9,63.0,48,29.88,10.0,South,13.8,21.9,N/A,,Clear,170,2013-07-06 16:53:00
12:53 PM,84.9,63.0,48,29.88,10.0,SSE,18.4,24.2,N/A,,Clear,160,2013-07-06 17:53:00
1:53 PM,82.9,62.1,49,29.88,10.0,South,18.4,23.0,N/A,,Clear,190,2013-07-06 18:53:00
2:53 PM,82.9,63.0,51,29.88,10.0,South,11.5,-,N/A,,Clear,170,2013-07-06 19:53:00
3:53 PM,82.9,64.9,54,29.88,10.0,SSE,8.1,-,N/A,,Clear,150,2013-07-06 20:53:00
4:53 PM,82.9,66.0,56,29.88,10.0,South,9.2,-,0.00,,Scattered Clouds,170,2013-07-06 21:53:00
5:53 PM,84.0,64.0,51,29.87,10.0,South,8.1,-,N/A,,Mostly Cloudy,170,2013-07-06 22:53:00
6:53 PM,82.9,64.0,53,29.86,10.0,South,11.5,-,0.00,,Mostly Cloudy,180,2013-07-06 23:53:00
7:53 PM,82.0,64.0,54,29.86,10.0,South,12.7,-,N/A,,Clear,180,2013-07-07 00:53:00
8:53 PM,81.0,64.0,56,29.86,10.0,South,13.8,23.0,N/A,,Scattered Clouds,170,2013-07-07 01:53:00
9:42 PM,82.0,61.0,49,29.89,10.0,South,17.3,26.5,N/A,Thunderstorm,Mostly Cloudy,170,2013-07-07 02:42:00
9:53 PM,82.0,61.0,49,29.86,10.0,South,17.3,29.9,N/A,,Overcast,170,2013-07-07 02:53:00
10:53 PM,78.1,64.0,62,29.89,10.0,SSW,10.4,-,0.00,Rain,Light Rain,200,2013-07-07 03:53:00
11:53 PM,75.0,64.0,69,29.89,10.0,South,11.5,-,0.00,,Overcast,180,2013-07-07 04:53:00